sat.trackr.live / text

‹ back to catalog

GAOFEN-11 03

NORAD 49492 · 2021-107A

PAYLOAD ACTIVE UNKNOWN

§ Identity

Operator
Country
PRC
Launch date
2021-11-20
Launch site
TAISC
Launch vehicle
Mass (kg)
RCS (m²)

External: N2YO · Heavens-Above · Gunter

§ Orbital elements

Epoch: 2026-09-20T22:26:27.615840Z

Period
94.51 min
Inclination
97.1999°
Eccentricity
0.0006048
Mean motion
15.23680743 rev/d
Perigee alt
490.6 km
Apogee alt
498.9 km
Semi-major
6,872.9 km
B*
1.2460e-4
RAAN
304.3057°
Arg perigee
99.0044°
Mean anomaly
261.1878°
Rev number
26,921

§ Raw data

GAOFEN-11 031 49492U 21107A   26263.93504185  .00002923  00000+0  12460-3 0  99942 49492  97.1999 304.3057 0006048  99.0044 261.1878 15.23680743269212

JSON: /api/v1/satellites/49492 · /tle

For live sub-satellite position, see the globe view (requires WebGL).

§ Visibility from observer

Set your observer location to see the next 7 days of passes ≥ 10°. The values pass through the URL so the page stays shareable.

No JS? Fill the form by hand. The geolocation button needs JavaScript.